Wind_Speed
12 12 13 14 14 14 13 13 13 13 14 15 15 16 17 17 16 16 16 17 17 17 16 15 16 15 15 16 16 16 16 16 17 17 17 18 18 18 18 18 19 19 19
12 12 12 13 13 13 12 13 14 14 14 14 14 14 15 16 16 16 16 17 17 17 17 17 16 16 16 16 17 17 17 17 17 18 18 19 19 19 19 19 20 20 20
11 12 12 12 12 12 13 13 14 14 14 15 15 15 14 15 16 16 17 18 18 18 18 17 17 17 17 17 18 18 18 18 18 19 19 19 20 20 20 20 20 21 21
11 12 12 12 12 12 12 13 13 14 14 15 15 15 15 15 16 16 16 16 17 17 16 17 17 18 18 18 17 18 19 18 19 19 19 19 20 20 21 21 21 21 21
12 12 12 13 13 13 12 13 13 14 15 15 15 15 16 15 15 15 15 15 15 15 15 16 17 18 18 18 18 18 18 18 19 19 19 19 20 20 20 21 21 22 22
11 11 11 12 12 12 12 12 13 13 14 14 15 15 15 15 15 15 15 15 15 16 16 16 17 18 18 18 18 17 18 19 19 20 20 20 20 20 20 20 21 22 22
10 11 11 11 11 11 11 12 12 12 13 14 14 15 15 16 16 16 16 16 16 17 16 17 17 17 17 18 18 18 18 19 20 20 20 21 21 21 21 22 22 22 22
10 10 11 10 10 10 11 11 11 12 13 13 14 14 15 16 16 16 16 16 17 17 17 17 17 17 17 17 18 19 19 19 19 20 21 21 21 22 22 23 23 23 23
10 10 10 10 10 11 11 12 12 13 13 14 14 15 15 16 17 17 16 16 16 17 17 17 17 17 17 17 17 17 18 19 19 19 19 19 20 20 21 22 22 22 23
10 10 10 11 12 12 12 13 13 13 13 14 14 14 14 15 15 16 16 16 16 17 16 16 17 17 17 16 17 18 17 18 19 19 19 19 20 20 20 21 21 22 23
9 9 10 11 12 13 14 14 14 14 14 14 14 14 14 14 15 16 16 17 17 17 18 18 17 17 17 17 18 18 18 19 20 19 20 20 21 22 22 23 23 23 24
9 10 11 12 12 12 13 14 14 14 14 14 14 14 14 15 15 15 16 16 16 17 17 18 18 18 17 18 18 19 19 20 20 20 21 21 21 22 23 24 25 24 24
10 10 11 12 12 12 13 13 13 13 13 13 14 14 14 14 14 14 15 15 16 16 16 16 17 17 17 17 18 19 20 20 21 22 22 22 23 23 24 24 25 25 25
10 11 12 12 12 12 12 12 12 12 12 12 13 13 13 13 13 14 14 15 16 16 16 16 16 16 17 17 18 19 19 20 21 22 23 23 24 24 25 25 26 26 26
11 11 12 12 12 12 12 12 12 12 12 12 12 12 12 13 13 14 14 13 14 14 15 16 16 17 17 18 19 19 20 20 21 22 23 23 24 24 25 26 27 27 28
11 11 12 12 13 13 12 12 12 12 12 12 12 12 13 13 14 14 14 14 14 13 13 14 15 16 17 18 19 19 20 21 21 22 22 23 24 24 26 27 27 28 29
11 11 11 12 13 13 12 12 12 13 12 12 12 13 13 14 14 14 15 15 15 15 15 15 15 16 17 18 19 19 20 21 21 22 23 23 24 25 26 26 27 29 30
11 11 11 12 12 12 12 12 12 13 13 12 12 13 13 14 14 15 15 15 15 15 15 16 16 17 17 17 18 19 19 20 20 22 23 23 24 25 26 26 27 28 29
11 11 11 11 11 11 11 11 11 12 12 12 13 13 13 14 14 15 16 16 15 16 16 17 16 16 17 17 18 18 20 20 20 21 22 23 24 25 26 27 27 27 28
11 11 12 12 11 11 10 10 10 11 11 11 12 12 13 14 14 15 15 15 15 15 16 16 16 17 17 18 19 20 20 21 21 22 22 23 24 25 26 26 27 27 27
11 11 12 11 11 11 11 10 10 10 10 10 10 11 12 13 14 14 14 14 14 14 15 15 16 17 18 19 19 20 21 21 22 22 23 23 24 24 25 26 26 27 28
11 11 11 11 11 11 11 10 10 10 9 10 10 11 11 13 14 14 13 13 13 14 15 16 17 18 18 19 20 21 21 22 22 23 23 24 24 24 25 26 26 27 28
12 11 11 11 12 12 11 11 11 10 10 10 11 11 12 13 12 12 12 12 13 14 15 16 17 18 19 19 19 20 21 21 21 22 23 23 23 24 24 25 26 26 27
12 11 11 11 11 11 11 11 11 11 10 10 11 11 11 11 11 11 11 12 13 14 15 16 17 17 18 19 19 20 20 20 20 21 21 22 22 23 24 24 25 26 26
11 11 11 11 11 11 11 11 11 11 11 12 12 11 11 10 11 11 11 13 14 14 15 16 16 17 17 18 18 19 19 20 20 21 21 21 22 23 23 24 24 24 24
11 11 11 11 11 11 11 11 12 11 12 12 12 12 11 11 11 11 12 13 14 15 16 17 17 17 17 17 18 19 19 20 20 21 21 21 22 23 23 23 23 23 23
Wind_Direction
274 272 269 265 266 269 266 262 261 263 262 261 261 259 257 256 254 255 255 258 260 261 259 257 258 260 257 257 257 256 254 253 253 250 249 251 251 252 253 253 252 253 253
276 273 272 266 265 264 262 262 261 262 263 262 261 261 259 256 254 256 258 260 259 258 259 261 261 264 263 259 258 256 254 254 254 253 254 253 251 251 253 253 253 254 254
276 275 273 268 265 263 262 263 261 261 262 262 262 261 262 259 259 259 258 258 259 260 262 262 261 264 265 261 257 254 253 255 257 257 255 253 252 252 253 253 253 253 253
273 274 273 270 268 266 263 263 262 263 264 262 261 262 263 262 261 262 262 262 263 261 260 261 263 262 264 262 258 258 257 256 257 257 257 255 254 253 254 254 253 254 254
275 276 275 271 269 267 266 266 266 266 263 261 260 261 263 265 262 261 264 263 264 261 261 261 262 263 264 260 258 259 259 259 259 259 260 259 256 254 255 255 255 254 255
278 278 276 273 270 268 268 266 268 267 264 262 260 260 261 261 261 259 261 260 260 260 262 262 263 264 263 262 259 257 260 261 260 259 259 258 257 256 256 256 256 255 255
280 281 279 275 272 272 269 266 268 269 266 264 262 261 261 260 260 260 258 257 259 261 263 265 265 265 264 264 260 261 263 262 262 260 258 258 257 257 257 257 258 257 256
282 281 279 275 274 274 271 271 272 269 265 264 264 263 262 261 259 260 261 261 263 262 262 265 265 264 265 264 263 263 264 262 262 261 260 259 258 258 259 258 258 258 257
288 282 279 277 276 273 272 273 273 272 269 266 265 264 262 262 260 258 256 259 260 260 262 264 264 263 263 264 265 265 263 261 263 264 263 261 261 262 261 261 260 260 261
289 283 282 281 279 275 274 275 274 273 271 268 266 265 265 263 261 258 258 259 261 260 259 261 262 263 265 265 266 265 264 263 263 264 265 264 263 263 264 263 263 265 264
293 296 294 291 287 279 276 277 275 275 271 267 265 264 261 261 261 263 262 261 262 262 264 264 263 263 264 266 267 266 265 265 264 265 265 265 263 264 264 264 265 267 266
298 300 301 298 293 286 284 281 274 271 270 267 266 265 261 261 264 266 264 262 262 264 266 266 266 265 265 268 268 267 267 265 264 266 267 266 265 264 265 266 267 268 267
295 299 301 300 298 292 287 284 277 271 268 266 267 267 266 266 267 268 268 266 265 265 265 266 266 265 266 269 271 272 271 269 269 269 269 268 268 267 267 267 267 267 267
296 296 299 300 299 293 288 285 280 273 269 269 270 270 271 268 269 272 270 267 267 266 264 267 269 267 268 269 272 275 275 274 273 272 271 271 271 270 269 269 269 269 269
298 296 297 297 297 295 289 283 281 275 272 270 271 272 271 271 272 273 272 269 268 267 266 268 269 269 269 271 273 275 276 276 276 276 274 273 273 272 271 271 270 270 270
298 296 295 295 296 296 291 284 280 276 273 270 270 271 271 273 275 276 275 272 271 268 270 271 273 274 274 275 274 276 277 277 278 277 276 276 275 274 274 274 273 272 271
300 299 297 297 297 297 292 285 278 276 275 273 272 273 273 274 277 278 277 274 270 268 270 273 276 278 277 276 276 278 277 277 279 279 277 277 277 277 277 277 276 275 273
301 300 300 301 301 299 296 289 283 277 274 272 273 274 275 277 278 279 278 277 272 270 270 272 275 278 278 278 278 279 280 281 283 283 280 280 279 279 278 279 279 277 276
301 299 300 302 302 298 295 292 290 282 276 273 273 273 276 279 281 281 280 277 272 271 272 273 275 278 279 280 280 282 282 284 285 286 285 284 284 282 281 281 280 279 278
302 299 299 301 302 301 298 294 290 288 283 279 275 276 278 279 282 285 283 280 275 273 274 274 278 280 281 281 282 283 283 286 287 288 287 287 287 285 284 283 282 280 278
304 301 299 300 299 297 296 295 292 291 287 283 283 283 282 281 284 286 285 281 276 276 277 277 280 282 281 282 284 285 286 287 288 289 289 289 289 287 286 285 285 283 280
303 303 300 298 297 299 298 295 293 291 287 286 287 288 288 288 288 288 288 285 280 281 281 281 281 283 284 287 288 290 288 288 290 291 291 291 290 289 288 287 286 285 284
304 303 301 298 296 296 295 293 293 293 290 290 291 291 290 293 292 289 287 287 287 287 287 287 286 285 285 288 290 292 292 291 292 293 293 293 292 291 291 290 289 288 287
303 300 297 298 297 295 292 293 294 292 290 294 294 294 296 296 293 290 286 288 293 294 293 290 291 292 291 292 293 292 295 296 295 295 297 296 295 294 294 293 294 293 290
300 299 296 294 294 295 293 293 294 291 294 297 297 296 298 296 294 291 290 290 292 294 297 296 295 294 294 298 299 297 298 298 297 297 298 298 297 297 297 298 298 296 293
300 298 296 294 292 293 293 293 295 292 295 297 295 292 292 293 293 292 292 292 295 298 299 298 297 298 299 299 300 301 301 301 298 299 301 300 299 299 300 300 299 298 297
Height
5846 5846 5845 5845 5844 5844 5844 5845 5845 5845 5845 5846 5846 5846 5846 5847 5848 5848 5849 5848 5848 5848 5849 5849 5849 5849 5849 5850 5850 5851 5851 5852 5852 5853 5853 5854 5855 5855 5856 5857 5858 5859 5860
5843 5842 5842 5841 5841 5841 5841 5842 5842 5842 5842 5842 5843 5843 5843 5843 5844 5845 5845 5845 5845 5845 5845 5845 5845 5845 5846 5846 5846 5847 5847 5848 5848 5849 5849 5850 5851 5851 5852 5853 5854 5855 5856
5839 5839 5838 5838 5838 5838 5838 5838 5839 5839 5839 5839 5839 5840 5840 5840 5841 5841 5841 5841 5841 5840 5841 5841 5841 5841 5841 5842 5842 5843 5843 5843 5844 5844 5845 5845 5846 5847 5848 5848 5849 5850 5851
5836 5835 5835 5835 5835 5834 5835 5835 5835 5836 5836 5836 5836 5836 5836 5836 5837 5837 5837 5837 5837 5837 5837 5837 5837 5837 5837 5837 5838 5838 5839 5839 5839 5840 5840 5840 5841 5842 5843 5843 5844 5845 5845
5833 5832 5832 5831 5831 5831 5831 5831 5832 5832 5832 5832 5832 5832 5832 5832 5832 5833 5833 5833 5833 5833 5833 5833 5833 5833 5833 5833 5834 5834 5834 5834 5834 5835 5835 5835 5836 5836 5837 5838 5838 5839 5840
5830 5829 5828 5828 5828 5828 5827 5828 5828 5828 5828 5827 5828 5828 5828 5828 5828 5829 5829 5829 5829 5829 5828 5829 5829 5829 5829 5829 5829 5829 5829 5829 5829 5830 5830 5830 5831 5831 5832 5833 5833 5834 5835
5827 5826 5826 5825 5824 5824 5824 5824 5824 5824 5824 5823 5824 5824 5824 5824 5824 5824 5825 5825 5825 5825 5824 5824 5824 5824 5824 5824 5824 5825 5824 5824 5825 5825 5825 5825 5826 5826 5827 5827 5828 5828 5829
5824 5823 5822 5822 5821 5821 5821 5820 5820 5820 5820 5820 5820 5820 5819 5820 5819 5820 5820 5820 5820 5820 5820 5820 5820 5820 5819 5819 5820 5820 5820 5820 5820 5820 5820 5820 5820 5821 5821 5822 5822 5822 5823
5821 5820 5819 5818 5818 5818 5817 5817 5817 5816 5816 5816 5816 5816 5815 5815 5815 5816 5815 5816 5816 5816 5816 5815 5815 5815 5815 5815 5815 5815 5815 5815 5815 5815 5815 5815 5815 5815 5815 5816 5816 5816 5816
5818 5817 5816 5816 5815 5814 5814 5813 5813 5812 5812 5811 5811 5811 5811 5811 5811 5811 5811 5811 5811 5811 5811 5811 5811 5810 5810 5810 5810 5810 5810 5809 5810 5810 5809 5809 5809 5809 5810 5809 5809 5810 5810
5815 5814 5813 5812 5811 5811 5809 5809 5808 5808 5807 5807 5807 5807 5806 5806 5806 5806 5806 5806 5806 5806 5806 5806 5806 5805 5805 5805 5804 5804 5804 5804 5804 5804 5804 5804 5804 5804 5804 5803 5803 5803 5803
5812 5811 5810 5809 5807 5806 5805 5804 5804 5803 5803 5803 5802 5802 5802 5802 5802 5801 5801 5801 5801 5801 5801 5800 5800 5800 5800 5800 5799 5799 5799 5798 5798 5798 5798 5798 5797 5797 5797 5797 5797 5796 5796
5809 5808 5806 5805 5804 5802 5801 5800 5799 5799 5798 5798 5798 5798 5797 5797 5797 5797 5796 5796 5796 5796 5795 5795 5795 5795 5795 5794 5794 5793 5793 5792 5792 5792 5791 5791 5791 5790 5790 5790 5789 5789 5789
5805 5804 5803 5802 5800 5798 5797 5796 5795 5795 5794 5794 5794 5793 5793 5793 5793 5792 5792 5792 5791 5791 5790 5790 5790 5790 5789 5789 5788 5788 5787 5786 5786 5785 5785 5784 5784 5783 5783 5782 5782 5781 5780
5801 5800 5799 5798 5796 5795 5793 5792 5791 5790 5790 5790 5790 5789 5789 5789 5788 5788 5787 5787 5787 5786 5786 5785 5785 5785 5784 5783 5783 5782 5782 5781 5780 5779 5778 5777 5777 5776 5775 5774 5774 5773 5772
5797 5796 5795 5794 5792 5791 5789 5788 5787 5786 5786 5785 5785 5785 5785 5784 5784 5783 5783 5782 5781 5781 5781 5781 5780 5779 5779 5778 5777 5776 5776 5774 5773 5772 5771 5770 5769 5768 5767 5766 5765 5764 5764
5794 5793 5791 5790 5788 5786 5785 5783 5782 5782 5781 5781 5780 5780 5780 5779 5779 5779 5778 5777 5777 5776 5776 5776 5775 5774 5773 5772 5771 5770 5769 5768 5767 5765 5764 5763 5762 5760 5759 5758 5757 5756 5755
5790 5789 5787 5786 5784 5782 5780 5779 5778 5777 5777 5776 5776 5776 5775 5775 5775 5774 5773 5772 5772 5771 5771 5770 5770 5769 5768 5766 5765 5764 5763 5762 5760 5759 5757 5756 5754 5753 5751 5750 5749 5747 5746
5787 5785 5784 5782 5781 5779 5777 5776 5774 5773 5772 5772 5771 5771 5771 5770 5770 5769 5768 5767 5766 5766 5766 5765 5764 5763 5762 5761 5759 5758 5757 5755 5754 5752 5750 5748 5746 5745 5743 5742 5740 5739 5737
5783 5782 5780 5779 5777 5775 5774 5772 5771 5769 5768 5767 5767 5767 5766 5766 5765 5764 5763 5762 5761 5761 5760 5760 5759 5758 5756 5755 5754 5752 5751 5749 5747 5745 5743 5741 5739 5737 5735 5734 5732 5730 5729
5780 5778 5777 5775 5774 5772 5770 5769 5767 5766 5765 5764 5763 5762 5762 5761 5760 5759 5758 5757 5757 5756 5755 5754 5753 5752 5751 5749 5748 5746 5745 5743 5741 5738 5736 5734 5732 5730 5728 5726 5724 5722 5720
5776 5775 5773 5772 5771 5769 5767 5766 5764 5763 5762 5761 5760 5759 5758 5757 5756 5755 5754 5753 5752 5752 5751 5749 5748 5747 5746 5744 5742 5740 5738 5737 5735 5733 5730 5728 5725 5723 5720 5718 5716 5713 5711
5773 5772 5770 5769 5767 5766 5764 5763 5761 5760 5759 5758 5757 5755 5754 5753 5752 5751 5750 5749 5748 5747 5746 5745 5743 5742 5740 5738 5737 5734 5732 5730 5728 5725 5723 5721 5718 5715 5713 5710 5707 5705 5702
5770 5768 5767 5765 5764 5762 5761 5760 5758 5757 5756 5754 5753 5752 5750 5749 5748 5747 5746 5745 5744 5742 5741 5740 5738 5736 5734 5732 5730 5728 5726 5724 5721 5718 5716 5714 5711 5708 5705 5702 5699 5696 5693
5766 5764 5763 5762 5761 5759 5757 5756 5755 5753 5752 5751 5750 5748 5747 5746 5745 5743 5742 5741 5740 5738 5736 5734 5732 5730 5729 5727 5725 5722 5720 5718 5715 5713 5710 5707 5705 5701 5698 5695 5692 5689 5685
5762 5761 5760 5759 5757 5756 5754 5752 5751 5749 5748 5748 5746 5745 5744 5743 5741 5740 5739 5737 5735 5733 5731 5729 5727 5725 5723 5721 5719 5717 5715 5712 5709 5707 5704 5701 5698 5695 5692 5689 5685 5682 5679